Simultaneous Nadir Overpasses (SNOs) Predictions

Prediction of SNOs between METOP-A and TERRA Satellite Orbit:

Table of predicted SNOs for the next 14.0 days since TLE Epoch: 8/25/2018
Index Date (METOP-A) Time (METOP-A) Lat,Lon (METOP-A) SZA (METOP-A ) Date (TERRA) Time (TERRA) Lat,Lon (TERRA) SZA (TERRA ) Distance(km) Time Diff (sec)
1 08/27/2018 04:07:12 -81.42, -12.22 105.65 08/27/2018 04:07:34 -81.43, -12.32 105.65 1.67 22
2 08/27/2018 04:57:52 81.42, 155.25 74.38 08/27/2018 04:57:01 81.41, 155.08 74.33 3.09 51
3 08/29/2018 23:41:29 -81.42, 53.94 104.67 08/29/2018 23:41:49 -81.42, 54.01 104.65 1.26 20
4 08/30/2018 00:32:08 81.42,-138.21 75.41 08/30/2018 00:31:15 81.43,-138.21 75.38 0.37 53
5 09/01/2018 19:15:44 -81.42, 120.48 103.62 09/01/2018 19:16:03 -81.42, 120.36 103.63 2.21 19
6 09/01/2018 20:06:23 81.42, -71.69 76.45 09/01/2018 20:05:29 81.42, -71.89 76.40 3.24 54
7 09/04/2018 14:50:00 -81.42,-173.00 102.56 09/04/2018 14:50:17 -81.43,-172.90 102.54 1.75 17
8 09/04/2018 15:40:40 81.42, -5.59 77.46 09/04/2018 15:39:44 81.42, -5.55 77.44 0.95 56
9 09/07/2018 10:24:16 -81.42,-106.49 101.49 09/07/2018 10:24:32 -81.43,-106.54 101.48 0.90 16




NCC Satellite Simultaneous Nadir Overpasses (SNOs) Prediction Service
